N8AAU Weather Reports


Display with metric or nautical units.
time (UTC)temp
F
wind
direction
speed
MPH
gust
MPH
rain 1hr
in
rain 24hr
in
rain mn
in
humidity
%
barometer
mb
20260503184504 62 208 9.0 20.0 0.00 0.00 0.00 36 1009.7
20260503183500 62 226 4.0 19.0 0.00 0.00 0.00 36 1009.8
20260503182500 62 262 6.0 17.0 0.00 0.00 0.00 36 1009.9
20260503182000 62 226 7.0 23.0 0.00 0.00 0.00 35 1010.1
20260503181505 62 264 6.0 23.0 0.00 0.00 0.00 34 1010.0
20260503181004 62 200 5.0 22.0 0.00 0.00 0.00 36 1010.1
20260503180504 62 236 4.0 14.0 0.00 0.00 0.00 38 1010.2
20260503180005 61 277 4.0 19.0 0.00 0.00 0.00 38 1010.3
20260503175504 61 227 6.0 19.0 0.00 0.00 0.00 37 1010.3
20260503174004 62 224 3.0 18.0 0.00 0.00 0.00 37 1010.6
20260503173504 61 222 4.0 16.0 0.00 0.00 0.00 38 1010.7
20260503173005 61 180 5.0 16.0 0.00 0.00 0.00 38 1010.6
20260503172504 60 286 4.0 27.0 0.00 0.00 0.00 38 1010.7
20260503172004 60 252 5.0 27.0 0.00 0.00 0.00 38 1010.9
20260503171505 60 302 6.0 20.0 0.00 0.00 0.00 38 1010.9
20260503171004 60 232 5.0 20.0 0.00 0.00 0.00 38 1011.1
20260503170504 59 246 5.0 17.0 0.00 0.00 0.00 38 1011.2
20260503151004 59 227 1.0 12.0 0.00 0.00 0.00 38 1011.9
20260503150504 59 307 1.0 12.0 0.00 0.00 0.00 37 1011.9
20260503131004 47 247 0.0 6.0 0.00 0.00 0.00 54 1012.5
20260503130504 46 192 0.0 6.0 0.00 0.00 0.00 54 1012.6
20260503110500 35 213 0.0 8.0 0.00 0.00 0.00 70 1013.1
20260503090459 35 228 0.0 0.0 0.00 0.00 0.00 68 1013.7
20260503081504 36 229 0.0 0.0 0.00 0.00 0.00 67 1014.0
20260503081000 36 229 0.0 0.0 0.00 0.00 0.00 67 1014.0
20260503080459 36 226 0.0 0.0 0.00 0.00 0.00 67 1014.0
20260503072459 36 222 0.0 0.0 0.00 0.00 0.00 68 1014.1
20260503071958 36 222 0.0 0.0 0.00 0.00 0.00 68 1014.1
20260503071459 36 222 0.0 0.0 0.00 0.00 0.00 68 1014.1
20260503071000 37 222 0.0 0.0 0.00 0.00 0.00 67 1014.1
20260503070503 37 222 0.0 0.0 0.00 0.00 0.00 67 1014.1
20260503054959 38 221 0.0 0.0 0.00 0.00 0.00 64 1014.6
20260503054504 39 217 0.0 0.0 0.00 0.00 0.00 64 1014.7
20260503053958 39 221 0.0 0.0 0.00 0.00 0.00 63 1014.7
20260503053004 39 227 0.0 1.0 0.00 0.00 0.00 63 1014.7
20260503051958 39 222 0.0 5.0 0.00 0.00 0.00 63 1014.8
20260503051500 39 221 0.0 5.0 0.00 0.00 0.00 63 1014.8
20260503050959 39 250 0.0 0.0 0.00 0.00 0.00 63 1014.8
20260503050459 39 228 0.0 0.0 0.00 0.00 0.00 62 1014.9
20260503050003 39 235 0.0 0.0 0.00 0.00 0.00 62 1014.8
20260503045504 39 234 0.0 0.0 0.00 0.00 0.00 62 1014.9
20260503045004 39 227 0.0 0.0 0.00 0.00 0.00 62 1014.9
20260503044504 39 227 0.0 0.0 0.00 0.00 0.00 62 1014.9
20260503044004 39 226 0.0 0.0 0.00 0.00 0.00 62 1014.9
20260503043504 39 226 0.0 0.0 0.00 0.00 0.00 62 1014.8
20260503043004 39 226 0.0 0.0 0.00 0.00 0.00 62 1014.8
20260503042504 39 226 0.0 0.0 0.00 0.00 0.00 62 1014.8
20260503042005 39 226 0.0 0.0 0.00 0.00 0.00 62 1014.8
20260503041505 39 226 0.0 0.0 0.00 0.00 0.00 62 1014.8
20260503041004 39 226 0.0 0.0 0.00 0.00 0.00 62 1014.9
20260503040008 39 225 0.0 0.0 0.00 0.00 0.00 62 1014.9
20260503035505 39 225 0.0 0.0 0.00 0.00 0.00 62 1014.9
20260503035004 39 225 0.0 0.0 0.00 0.00 0.00 63 1015.0
20260503034505 39 225 0.0 0.0 0.00 0.00 0.00 63 1014.9
20260503034004 39 225 0.0 0.0 0.00 0.00 0.00 63 1015.0
20260503033504 39 225 0.0 0.0 0.00 0.00 0.00 63 1015.0
20260503033007 39 225 0.0 0.0 0.00 0.00 0.00 63 1015.0
20260503032004 39 225 0.0 0.0 0.00 0.00 0.00 63 1015.1
20260503031004 39 225 0.0 0.0 0.00 0.00 0.00 62 1015.1
20260503030504 39 225 0.0 0.0 0.00 0.00 0.00 61 1015.1
20260503030004 40 225 0.0 0.0 0.00 0.00 0.00 61 1015.1
20260503025504 40 225 0.0 0.0 0.00 0.00 0.00 62 1015.2
20260503024504 40 225 0.0 0.0 0.00 0.00 0.00 61 1015.2
20260503023504 40 225 0.0 0.0 0.00 0.00 0.00 60 1015.4
20260503023004 40 225 0.0 0.0 0.00 0.00 0.00 60 1015.4
20260503022504 41 225 0.0 0.0 0.00 0.00 0.00 60 1015.4
20260503022004 41 225 0.0 0.0 0.00 0.00 0.00 59 1015.4
20260503021505 41 225 0.0 0.0 0.00 0.00 0.00 59 1015.4
20260503021004 41 225 0.0 0.0 0.00 0.00 0.00 58 1015.3
20260503020504 41 225 0.0 0.0 0.00 0.00 0.00 57 1015.3
20260503020004 41 225 0.0 0.0 0.00 0.00 0.00 57 1015.3
20260503015504 42 225 0.0 0.0 0.00 0.00 0.00 57 1015.3
20260503015004 42 225 0.0 0.0 0.00 0.00 0.00 57 1015.3
20260503014504 42 225 0.0 0.0 0.00 0.00 0.00 56 1015.3
20260503014004 42 225 0.0 0.0 0.00 0.00 0.00 56 1015.3
20260503013503 43 225 0.0 0.0 0.00 0.00 0.00 55 1015.2
20260503013005 43 225 0.0 0.0 0.00 0.00 0.00 54 1015.3
20260503012504 43 225 0.0 0.0 0.00 0.00 0.00 53 1015.2
20260503012004 43 225 0.0 0.0 0.00 0.00 0.00 52 1015.2
20260503011505 44 225 0.0 0.0 0.00 0.00 0.00 52 1015.2
20260503011004 44 225 0.0 0.0 0.00 0.00 0.00 49 1015.2
20260503010504 44 225 0.0 0.0 0.00 0.00 0.00 49 1015.2
20260503005503 45 225 0.0 0.0 0.00 0.00 0.00 48 1015.2
20260503005004 45 225 0.0 0.0 0.00 0.00 0.00 47 1015.2
20260503004505 45 225 0.0 0.0 0.00 0.00 0.00 46 1015.2
20260503004004 46 225 0.0 0.0 0.00 0.00 0.00 45 1015.2
20260503002004 46 225 0.0 0.0 0.00 0.00 0.00 44 1015.1
20260503001505 47 225 0.0 0.0 0.00 0.00 0.00 44 1015.1
20260503001004 47 225 0.0 0.0 0.00 0.00 0.00 43 1015.0
20260503000504 47 225 0.0 0.0 0.00 0.00 0.00 44 1015.1
20260503000006 47 225 0.0 0.0 0.00 0.00 0.00 42 1015.0
20260502235505 47 244 0.0 0.0 0.00 0.00 0.00 42 1015.1
20260502235004 47 244 0.0 0.0 0.00 0.00 0.00 42 1015.0
20260502234504 47 285 0.0 0.0 0.00 0.00 0.00 42 1015.0
20260502234004 47 296 0.0 0.0 0.00 0.00 0.00 43 1015.0
20260502233004 47 293 0.0 3.0 0.00 0.00 0.00 42 1015.2
20260502232504 47 305 0.0 3.0 0.00 0.00 0.00 43 1015.2
20260502232004 47 221 0.0 0.0 0.00 0.00 0.00 44 1015.2
20260502231504 47 218 0.0 0.0 0.00 0.00 0.00 43 1015.2
20260502231005 48 227 0.0 0.0 0.00 0.00 0.00 42 1015.2
20260502230504 48 307 0.0 0.0 0.00 0.00 0.00 43 1015.2
20260502230004 48 250 0.0 2.0 0.00 0.00 0.00 43 1015.2
20260502225504 48 244 0.0 2.0 0.00 0.00 0.00 42 1015.3
20260502225004 48 266 0.0 1.0 0.00 0.00 0.00 43 1015.3
20260502224504 48 246 0.0 1.0 0.00 0.00 0.00 42 1015.3
20260502221004 49 279 0.0 0.0 0.00 0.00 0.00 41 1015.3
20260502220005 49 296 0.0 3.0 0.00 0.00 0.00 41 1015.3
20260502215505 49 206 0.0 3.0 0.00 0.00 0.00 41 1015.3
20260502215005 49 244 0.0 3.0 0.00 0.00 0.00 41 1015.4
20260502214004 48 311 0.0 3.0 0.00 0.00 0.00 43 1015.4
20260502213504 48 336 0.0 4.0 0.00 0.00 0.00 43 1015.3
20260502212504 48 279 0.0 1.0 0.00 0.00 0.00 42 1015.4
20260502212005 48 245 0.0 1.0 0.00 0.00 0.00 42 1015.3
20260502211504 48 290 0.0 5.0 0.00 0.00 0.00 43 1015.4
20260502211005 48 264 0.0 5.0 0.00 0.00 0.00 43 1015.4
20260502210504 48 333 0.0 3.0 0.00 0.00 0.00 44 1015.5
20260502210005 48 296 0.0 1.0 0.00 0.00 0.00 44 1015.5
20260502205504 48 225 0.0 1.0 0.00 0.00 0.00 44 1015.4
20260502205004 48 291 0.0 1.0 0.00 0.00 0.00 42 1015.5
20260502204505 48 310 0.0 2.0 0.00 0.00 0.00 43 1015.5
20260502204003 48 236 0.0 2.0 0.00 0.00 0.00 43 1015.5
20260502203005 48 265 0.0 1.0 0.00 0.00 0.00 43 1015.6
20260502202503 48 218 0.0 4.0 0.00 0.00 0.00 42 1015.7
20260502202000 48 240 0.0 3.0 0.00 0.00 0.00 43 1015.8
20260502201504 48 244 0.0 1.0 0.00 0.00 0.00 43 1015.8
20260502201004 48 280 0.0 3.0 0.00 0.00 0.00 42 1015.8
20260502200500 48 278 0.0 2.0 0.00 0.00 0.00 42 1015.9
20260502200005 48 302 0.0 3.0 0.00 0.00 0.00 43 1015.9
20260502195504 48 323 0.0 3.0 0.00 0.00 0.00 41 1015.9
20260502195004 47 253 0.0 0.0 0.00 0.00 0.00 42 1016.0
20260502194505 47 281 0.0 10.0 0.00 0.00 0.00 42 1016.1
20260502194004 47 303 0.0 14.0 0.00 0.00 0.00 42 1016.2
20260502193504 47 220 0.0 0.0 0.00 0.00 0.00 41 1016.2
20260502193005 47 317 0.0 2.0 0.00 0.00 0.00 42 1016.2
20260502192505 47 347 0.0 2.0 0.00 0.00 0.00 41 1016.2
20260502192000 47 239 0.0 2.0 0.00 0.00 0.00 41 1016.3
20260502191504 47 239 0.0 9.0 0.00 0.00 0.00 41 1016.3
20260502191004 47 299 0.0 9.0 0.00 0.00 0.00 43 1016.3
20260502190501 47 317 0.0 2.0 0.00 0.00 0.00 41 1016.4
20260502185504 47 31 0.0 2.0 0.00 0.00 0.00 42 1016.5
20260502185004 47 316 0.0 2.0 0.00 0.00 0.00 41 1016.5